Weather reports worldwide

Advertisment
Greifswalder Oie, Germany (10097): temperature & dewpoint: 11.01.2021 23:00:00 - 17.01.2021 23:00:00 (CET)Greifswalder Oie, Germany (10097): temperature 5cm & temperature -5cm: 11.01.2021 23:00:00 - 17.01.2021 23:00:00 (CET)Greifswalder Oie, Germany (10097): temperature -20cm & temperature -100cm: 11.01.2021 23:00:00 - 17.01.2021 23:00:00 (CET)Greifswalder Oie, Germany (10097): water temperature: 11.01.2021 23:00:00 - 17.01.2021 23:00:00 (CET)Greifswalder Oie, Germany (10097): wind speed & gusts: 11.01.2021 23:00:00 - 17.01.2021 23:00:00 (CET)Greifswalder Oie, Germany (10097): wind direction: 11.01.2021 23:00:00 - 17.01.2021 23:00:00 (CET)Greifswalder Oie, Germany (10097): reduced air pressure: 11.01.2021 23:00:00 - 17.01.2021 23:00:00 (CET)Greifswalder Oie, Germany (10097): visibility: 11.01.2021 23:00:00 - 17.01.2021 23:00:00 (CET)Greifswalder Oie, Germany (10097): sunshine duration: 11.01.2021 23:00:00 - 17.01.2021 23:00:00 (CET)Greifswalder Oie, Germany (10097): precipitation: 11.01.2021 23:00:00 - 17.01.2021 23:00:00 (CET)
Date & Time tt [°C] td [°C] tt 5cm [°C] tt -5cm [°C] tt -20cm [°C] tt -100cm [°C] tw [°C] ff [km/h] ff [kn] fx [km/h] fx [kn] dd ppp [hPa] vv [km] sd [min] rr [mm]
17.01.2021 23:00:00 -3,1 -4,2 -3,9 -0,9 0,9 5,0 1,6 17 9 27 15 S 1021,5 13 0 0,0
17.01.2021 22:00:00 -2,7 -3,9 -3,7 -0,8 0,9 5,0 1,7 12 7 22 12 S 1021,6 13 0 0,0
17.01.2021 21:00:00 -2,5 -3,8 -3,4 -0,6 0,9 5,0 1,7 14 7 22 12 S 1021,8 14 0 0,0
17.01.2021 20:00:00 -2,1 -3,6 -2,6 -0,6 0,9 5,0 2,0 11 6 21 11 S 1022,1 17 0 0,0
17.01.2021 19:00:00 -2,0 -4,1 -2,4 -0,4 0,9 5,0 2,0 11 6 22 12 S 1022,0 11 0 0,0
17.01.2021 18:00:00 -1,9 -3,7 -3,1 -0,2 0,9 5,0 2,2 11 6 18 10 S 1021,6 9 0 0,0
17.01.2021 17:00:00 -1,4 -3,2 -1,7 -0,1 0,9 5,0 2,4 11 6 19 10 S 1021,5 7 0 0,0
17.01.2021 16:00:00 -1,5 -3,5 -1,9 -0,1 0,9 5,0 2,4 10 5 16 9 S 1021,0 7 0 0,0
17.01.2021 15:00:00 -1,7 -3,6 -1,9 -0,1 0,9 5,0 2,5 11 6 16 9 SE 1020,5 12 2 0,0
17.01.2021 14:00:00 -1,7 -3,6 -0,9 -0,1 0,9 5,0 2,5 8 4 18 10 SE 1020,5 12 0 0,0
17.01.2021 13:00:00 -1,7 -4,1 -0,7 -0,1 0,9 5,0 2,5 11 6 18 10 SE 1020,7 15 0 0,0
17.01.2021 12:00:00 -0,7 -3,2 0,1 -0,1 0,9 5,0 2,4 10 6 17 9 ESE 1020,8 41 2 0,0
17.01.2021 11:00:00 -0,6 -3,4 -0,1 -0,2 0,9 5,0 2,4 11 6 18 10 ESE 1020,3 43 16 0,0
17.01.2021 10:00:00 -0,8 -3,5 -0,6 -0,2 0,9 5,1 2,4 12 6 22 12 SE 1019,8 55 0 0,0
17.01.2021 09:00:00 -0,4 -2,8 -0,7 -0,2 0,9 5,1 2,4 16 9 24 13 ESE 1019,4 37 0 0,0
17.01.2021 08:00:00 -0,1 -3,2 -0,5 -0,2 0,9 5,1 2,3 14 8 21 12 SE 1018,8 51 0 0,0
17.01.2021 07:00:00 0,1 -3,3 -0,4 -0,2 0,9 5,1 2,4 14 7 23 12 SSE 1018,3 48 0 0,0
17.01.2021 06:00:00 0,2 -0,9 -0,4 -0,2 1,0 5,1 2,6 7 4 18 10 S 1017,9 48 0 0,0
17.01.2021 05:00:00 0,4 -1,1 -0,1 -0,2 1,0 5,1 2,7 8 4 33 18 S 1017,5 29 0 0,0
17.01.2021 04:00:00 0,5 -1,2 0,3 -0,2 1,0 5,1 2,6 24 13 29 16 NW 1017,2 7 0 0,0
17.01.2021 03:00:00 1,2 -0,8 0,7 -0,2 1,0 5,1 2,6 21 12 29 16 NNW 1017,4 57 0 0,0
17.01.2021 02:00:00 0,8 -1,5 0,2 -0,3 1,0 5,1 2,7 20 11 29 16 NNW 1017,6 51 0 0,0
17.01.2021 01:00:00 0,5 -1,9 -0,7 -0,2 1,0 5,1 2,7 25 14 35 19 NNW 1017,8 49 0 0,0
17.01.2021 00:00:00 0,8 -1,9 0,4 -0,2 1,0 5,1 2,6 28 15 36 19 NNW 1018,2 51 0 0,0
16.01.2021 23:00:00 0,7 -1,3 0,4 -0,2 1,0 5,1 2,7 26 14 37 20 NW 1018,2 45 0 0,0
16.01.2021 22:00:00 0,7 -1,3 0,5 -0,2 1,0 5,1 2,7 29 16 40 22 NW 1018,1 50 0 0,0
16.01.2021 21:00:00 0,7 -1,4 0,5 -0,2 1,0 5,1 2,7 29 16 39 21 WNW 1018,3 49 0 0,0
16.01.2021 20:00:00 0,3 -1,8 0,3 -0,2 1,0 5,2 2,8 29 15 38 21 WNW 1018,5 47 0 0,0
16.01.2021 19:00:00 0,3 -1,9 0,0 -0,3 1,0 5,2 2,7 33 18 40 22 WNW 1018,6 59 0 0,0
16.01.2021 18:00:00 -0,1 -2,0 -0,3 -0,3 1,0 5,2 2,8 31 17 43 23 NW 1018,9 45 0 0,0
16.01.2021 17:00:00 -0,2 -2,0 -0,4 -0,1 1,0 5,2 2,7 36 19 46 25 WNW 1019,2 43 1 0,0
16.01.2021 16:00:00 -0,1 -2,3 -0,3 -0,1 1,0 5,2 2,8 40 22 46 25 WNW 1019,3 38 60 0,0
16.01.2021 15:00:00 0,7 -2,1 0,5 -0,1 1,0 5,2 2,8 35 19 45 25 WNW 1019,6 43 33 0,0
16.01.2021 14:00:00 0,2 -2,7 0,5 -0,2 1,0 5,2 2,7 38 21 46 25 NW 1020,1 55 21 0,0
16.01.2021 13:00:00 0,1 -2,7 -0,1 -0,2 1,0 5,2 2,7 34 18 41 22 NW 1020,6 55 15 0,0
16.01.2021 12:00:00 -0,4 -3,8 -0,2 -0,3 1,0 5,2 2,7 30 16 39 21 NW 1021,0 42 44 0,0
16.01.2021 11:00:00 -1,2 -4,2 -1,3 -0,5 1,1 5,2 2,6 31 17 46 25 NW 1021,9 57 20 0,0
16.01.2021 10:00:00 -2,2 -5,6 -2,4 -0,7 1,1 5,2 2,7 30 16 37 20 NW 1022,2 58 0 0,0
16.01.2021 09:00:00 -2,2 -5,4 -2,4 -0,7 1,1 5,2 2,7 30 16 40 22 NW 1022,4 56 0 0,0
16.01.2021 08:00:00 -1,9 -4,8 -2,1 -0,5 1,1 5,2 2,8 33 18 44 24 NW 1022,8 50 0 0,0
16.01.2021 07:00:00 -1,9 -5,3 -2,4 -0,5 1,2 5,2 2,8 30 16 43 23 NNW 1023,1 54 0 0,0
16.01.2021 06:00:00 -1,8 -5,2 -2,0 -0,4 1,2 5,2 2,9 28 15 41 22 NNW 1023,5 50 0 0,0
16.01.2021 05:00:00 -1,9 -5,4 -2,2 -0,4 1,2 5,2 2,9 30 16 43 23 NNW 1023,9 47 0 0,0
16.01.2021 04:00:00 -2,4 -6,4 -3,2 -0,3 1,3 5,2 3,0 34 18 45 25 NNW 1024,2 49 0 0,0
16.01.2021 03:00:00 -1,9 -5,9 -2,3 -0,2 1,3 5,3 3,0 34 19 45 24 NNW 1024,3 51 0 0,0
16.01.2021 02:00:00 -1,7 -5,9 -2,1 -0,2 1,3 5,3 3,1 32 18 44 24 NNW 1024,5 50 0 0,0
16.01.2021 01:00:00 -1,7 -5,6 -2,0 -0,1 1,4 5,3 3,1 24 13 37 20 NNW 1024,8 58 0 0,0
16.01.2021 00:00:00 -2,0 -6,2 -2,4 0,0 1,4 5,3 3,3 29 16 39 21 NNW 1025,1 57 0 0,0
15.01.2021 23:00:00 -2,0 -6,3 -2,6 0,0 1,4 5,3 3,1 24 13 36 19 N 1025,2 60 0 0,0
15.01.2021 22:00:00 -1,8 -6,5 -2,1 0,1 1,4 5,3 3,2 25 14 39 21 NNW 1025,3 67 0 0,0
15.01.2021 21:00:00 -1,8 -6,3 -2,1 0,1 1,5 5,3 3,3 34 18 44 24 NNW 1025,2 57 0 0,0
15.01.2021 20:00:00 -1,6 -6,1 -1,8 0,1 1,5 5,3 3,3 32 17 49 27 N 1025,3 49 0 0,0
15.01.2021 19:00:00 -1,6 -5,9 -1,8 0,2 1,5 5,3 3,4 25 14 43 23 N 1025,0 56 0 0,0
15.01.2021 18:00:00 -1,5 -5,7 -1,6 0,2 1,6 5,3 3,4 23 12 44 24 N 1024,9 46 0 0,0
15.01.2021 17:00:00 -1,5 -5,0 -1,6 0,2 1,6 5,3 3,5 34 18 44 24 NNW 1024,5 47 0 0,0
15.01.2021 16:00:00 -1,5 -5,1 -1,5 0,2 1,6 5,3 3,4 31 17 45 24 N 1024,1 17 0 0,0
15.01.2021 15:00:00 -1,4 -5,1 -1,3 0,3 1,7 5,3 3,4 26 14 42 23 N 1023,9 46 1 0,0
15.01.2021 14:00:00 -1,4 -5,2 -1,2 0,4 1,7 5,3 3,4 30 16 45 25 N 1023,6 46 0 0,0
15.01.2021 13:00:00 -0,9 -4,5 -0,4 0,9 1,7 5,3 3,5 32 17 48 26 N 1023,6 47 25 0,0
15.01.2021 12:00:00 -0,5 -4,8 -0,2 0,4 1,7 5,3 3,3 34 18 46 25 N 1023,6 55 16 0,0
15.01.2021 11:00:00 -0,1 -3,9 -0,2 0,3 1,7 5,3 3,3 32 17 45 25 N 1023,4 55 0 0,0
15.01.2021 10:00:00 0,4 -2,9 0,2 0,3 1,7 5,3 3,3 28 15 50 27 N 1022,7 44 0 0,0
15.01.2021 09:00:00 0,6 -2,9 0,3 0,3 1,8 5,3 3,3 33 18 45 24 NNE 1022,0 49 0 0,0
15.01.2021 08:00:00 0,7 -3,0 0,3 0,3 1,8 5,3 3,5 25 14 37 20 NE 1021,4 19 0 0,0
15.01.2021 07:00:00 -0,1 -0,6 -0,1 0,3 1,9 5,3 3,5 32 17 43 23 NNW 1021,1 17 0 0,3
15.01.2021 06:00:00 0,4 -1,8 0,1 0,4 2,0 5,3 3,5 35 19 42 23 NNW 1020,9 25 0 0,0
15.01.2021 05:00:00 0,6 -2,2 0,3 0,5 2,1 5,3 3,6 34 18 41 22 NNW 1021,0 36 0 0,0
15.01.2021 04:00:00 0,6 -1,9 0,4 0,6 2,1 5,3 3,5 32 17 44 24 NNW 1021,2 20 0 0,0
15.01.2021 03:00:00 0,7 -1,8 0,5 0,8 2,2 5,3 3,4 35 19 45 24 NNW 1021,1 40 0 0,0
15.01.2021 02:00:00 0,9 -1,7 0,6 0,9 2,3 5,3 3,5 31 17 45 25 N 1020,8 47 0 0,0
15.01.2021 01:00:00 1,2 -1,3 0,9 1,1 2,3 5,3 3,5 35 19 44 24 N 1020,9 43 0 0,0
15.01.2021 00:00:00 1,8 -0,6 1,4 1,3 2,4 5,3 3,5 30 16 40 22 N 1020,9 47 0 0,0
14.01.2021 23:00:00 2,2 -0,5 1,4 1,3 2,4 5,3 3,5 26 14 39 21 N 1020,6 53 0 0,0
14.01.2021 22:00:00 2,4 -0,3 1,5 1,3 2,5 5,3 3,5 26 14 40 21 NNE 1020,5 37 0 0,0
14.01.2021 21:00:00 2,4 0,6 1,5 1,2 2,6 5,3 3,5 26 14 44 24 N 1020,2 36 0 0,6
14.01.2021 20:00:00 1,6 0,7 1,2 1,6 2,6 5,3 3,5 32 18 46 25 N 1020,0 15 0 0,0
14.01.2021 19:00:00 3,0 -0,3 2,4 1,8 2,7 5,3 3,6 34 19 45 25 NNE 1019,5 36 0 0,0
14.01.2021 18:00:00 3,3 -0,4 2,8 2,0 2,7 5,3 3,8 31 17 46 25 NNE 1019,2 51 0 0,0
14.01.2021 17:00:00 3,2 0,3 2,8 2,2 2,7 5,4 3,7 32 18 44 24 NNE 1018,8 42 0 0,0
14.01.2021 16:00:00 3,0 0,8 2,3 2,3 2,7 5,4 3,9 29 16 49 26 NNE 1018,2 37 9 0,0
14.01.2021 15:00:00 3,2 1,3 2,7 2,6 2,7 5,4 3,7 29 16 48 26 NNE 1017,3 37 2 0,1
14.01.2021 14:00:00 3,4 0,9 2,7 3,2 2,5 5,4 3,7 31 17 46 25 NNE 1016,8 44 4 0,0
14.01.2021 13:00:00 3,7 1,6 3,1 2,8 2,4 5,4 3,7 29 15 41 22 NNE 1016,3 39 0 0,0
14.01.2021 12:00:00 3,5 2,2 3,0 2,4 2,3 5,4 3,3 25 14 48 26 NNE 1016,0 28 0 0,2
14.01.2021 11:00:00 3,6 1,6 3,0 2,3 2,2 5,4 3,6 29 16 52 28 NNE 1015,3 26 0 0,1
14.01.2021 10:00:00 2,4 1,7 1,9 1,7 2,1 5,4 3,2 38 21 59 32 N 1014,4 5 0 0,3
14.01.2021 09:00:00 3,6 1,6 2,7 1,6 2,1 5,4 2,8 32 17 53 29 N 1013,4 30 0 0,1
14.01.2021 08:00:00 2,6 1,5 1,9 1,0 2,1 5,4 2,7 32 18 50 27 N 1012,5 4,5 0 0,0
14.01.2021 07:00:00 3,1 0,0 1,5 1,0 2,1 5,4 2,7 31 17 50 27 N 1011,4 49 0 0,0
14.01.2021 06:00:00 3,0 0,9 1,7 1,4 2,1 5,4 2,7 32 18 47 25 NNE 1010,7 41 0 0,1
14.01.2021 05:00:00 2,9 1,1 2,0 1,4 2,1 5,4 2,7 34 19 53 28 NNE 1009,6 43 0 0,0
14.01.2021 04:00:00 3,8 -1,1 2,7 1,3 2,1 5,4 2,7 24 13 44 24 ENE 1008,2 56 0 0,0
14.01.2021 03:00:00 3,6 -0,4 2,2 1,5 2,0 5,4 2,8 27 15 46 25 NE 1006,5 54 0 0,1
14.01.2021 02:00:00 2,5 1,3 1,8 1,3 2,0 5,4 2,8 30 16 46 25 ENE 1004,5 50 0 0,0
14.01.2021 01:00:00 2,4 0,8 1,6 1,1 2,0 5,4 2,7 23 13 35 19 ENE 1002,7 40 0 0,1
14.01.2021 00:00:00 1,7 0,7 1,1 1,0 2,0 5,4 2,7 20 11 34 18 NE 1001,1 29 0 0,0
13.01.2021 23:00:00 1,7 0,2 1,0 0,7 2,0 5,4 2,7 16 8 27 15 NE 999,3 49 0 0,0
13.01.2021 22:00:00 1,1 0,3 0,4 0,6 2,1 5,4 2,8 13 7 21 11 NE 998,2 59 0 0,0
13.01.2021 21:00:00 1,1 0,0 0,7 1,1 2,1 5,4 2,7 10 5 20 11 NNE 997,2 72 0 0,0
13.01.2021 20:00:00 1,3 0,6 1,0 1,0 2,2 5,4 2,6 14 8 22 12 W 996,3 68 0 0,1
13.01.2021 19:00:00 0,8 0,6 0,4 0,8 2,2 5,4 2,6 8 4 25 14 SSW 996,0 48 0 0,1
13.01.2021 18:00:00 0,8 0,4 0,1 0,7 2,4 5,4 2,6 21 12 45 24 WSW 996,1 6 0 0,1
13.01.2021 17:00:00 1,1 0,9 0,6 0,9 2,5 5,4 2,6 24 13 44 24 WSW 996,5 56 0 1,2
13.01.2021 16:00:00 1,4 1,0 1,1 1,8 2,5 5,4 2,6 38 20 60 33 WSW 997,4 17 0 1,1
13.01.2021 15:00:00 2,5 1,2 1,9 2,1 2,4 5,4 2,6 45 24 54 29 SSW 997,8 13 0 0,5
13.01.2021 14:00:00 2,7 1,0 2,1 2,3 2,4 5,4 2,6 42 23 53 29 SW 999,3 15 0 0,0
13.01.2021 13:00:00 2,7 0,7 2,6 2,4 2,2 5,4 2,5 39 21 50 27 SW 1000,5 26 0 0,0
13.01.2021 12:00:00 2,5 0,8 2,7 2,1 2,1 5,4 2,4 40 22 55 30 SW 1001,5 35 0 0,0
13.01.2021 11:00:00 2,1 0,6 1,7 1,5 2,1 5,5 2,4 44 24 58 31 WSW 1002,2 32 1 0,0
13.01.2021 10:00:00 1,9 0,7 1,4 1,2 2,1 5,5 2,3 41 22 55 30 WSW 1002,4 38 6 0,0
13.01.2021 09:00:00 1,9 0,7 1,5 1,1 2,1 5,5 2,3 46 25 60 33 WSW 1002,7 36 0 0,0
13.01.2021 08:00:00 1,7 0,8 1,1 1,0 2,1 5,5 2,3 49 26 58 31 WSW 1002,3 35 0 0,0
13.01.2021 07:00:00 1,8 0,9 1,5 1,2 2,1 5,5 2,4 41 22 53 29 WSW 1002,5 35 0 0,0
13.01.2021 06:00:00 1,8 0,9 1,2 1,1 2,1 5,5 2,3 41 22 49 27 WSW 1002,4 37 0 0,0
13.01.2021 05:00:00 1,7 1,1 1,1 0,8 2,1 5,5 2,3 37 20 49 27 WSW 1002,3 33 0 0,0
13.01.2021 04:00:00 1,6 1,0 1,0 0,9 2,1 5,5 2,3 42 23 53 29 W 1002,0 27 0 0,1
13.01.2021 03:00:00 1,4 0,7 1,1 0,9 2,2 5,5 2,2 42 23 50 27 WSW 1002,2 13 0 0,2
13.01.2021 02:00:00 1,7 0,8 1,3 0,8 2,2 5,5 2,2 39 21 50 27 WSW 1002,2 34 0 0,0
13.01.2021 01:00:00 1,7 0,9 1,3 0,9 2,3 5,5 2,2 34 18 41 22 W 1002,3 32 0 0,0
13.01.2021 00:00:00 1,6 0,5 0,9 0,8 2,4 5,5 2,2 29 16 37 20 WSW 1002,2 41 0 0,0
12.01.2021 23:00:00 2,1 0,4 1,2 0,8 2,5 5,5 2,3 29 16 39 21 W 1001,9 51 0 0,0
12.01.2021 22:00:00 2,1 0,6 1,2 1,0 2,6 5,5 2,4 29 16 34 19 W 1001,5 49 0 0,0
12.01.2021 21:00:00 1,8 1,2 1,0 1,1 2,7 5,5 2,4 26 14 36 20 W 1000,9 40 0 0,0
12.01.2021 20:00:00 1,2 0,9 1,0 1,5 2,8 5,5 2,5 30 16 49 26 WNW 1000,1 65 0 0,1
12.01.2021 19:00:00 2,1 0,9 1,8 1,5 2,9 5,5 2,6 33 18 42 23 WSW 999,6 28 0 0,0
12.01.2021 18:00:00 1,8 1,0 0,8 1,2 3,1 5,5 2,6 22 12 25 13 SW 999,5 41 0 0,0
12.01.2021 17:00:00 2,3 1,0 0,9 1,6 3,3 5,5 2,7 17 9 24 13 SW 999,6 50 7 0,0
12.01.2021 16:00:00 2,5 1,6 1,6 2,6 3,4 5,5 2,7 20 11 26 14 WSW 999,5 51 60 0,0
12.01.2021 15:00:00 2,9 1,6 2,3 4,0 3,3 5,5 2,7 20 11 29 16 WSW 999,2 40 59 0,0
12.01.2021 14:00:00 3,1 1,6 3,4 4,8 3,0 5,5 2,7 23 12 27 15 WSW 999,1 58 60 0,0
12.01.2021 13:00:00 2,7 1,6 2,2 3,6 2,9 5,5 2,6 18 10 23 12 WSW 999,2 61 47 0,0
12.01.2021 12:00:00 2,5 1,7 2,1 2,5 2,8 5,5 2,5 19 11 26 14 W 999,5 62 0 0,0
12.01.2021 11:00:00 2,7 1,9 2,6 2,6 2,8 5,5 2,5 20 11 24 13 W 999,5 57 0 0,0
12.01.2021 10:00:00 2,7 1,7 2,4 2,4 2,8 5,5 2,6 16 9 26 14 W 999,2 57 0 0,0
12.01.2021 09:00:00 2,8 1,7 2,4 2,3 2,7 5,5 2,6 21 11 29 16 W 998,8 61 0 0,0
12.01.2021 08:00:00 2,7 2,2 2,4 2,5 2,7 5,5 2,7 26 14 50 27 WNW 998,1 52 0 0,3
12.01.2021 07:00:00 3,3 2,7 2,9 2,4 2,6 5,5 2,7 42 23 63 34 SW 997,0 7 0 0,1
12.01.2021 06:00:00 3,0 2,0 2,5 2,2 2,6 5,5 2,7 53 28 71 39 SW 996,8 15 0 0,0
12.01.2021 05:00:00 2,4 1,5 2,0 1,9 2,6 5,5 2,3 49 26 62 33 SW 997,3 16 0 0,1
12.01.2021 04:00:00 1,9 1,1 1,5 1,8 2,7 5,5 2,0 50 27 63 34 SSW 998,5 13 0 0,1
12.01.2021 03:00:00 1,9 1,2 1,6 2,0 2,7 5,5 2,1 49 27 59 32 SSW 999,7 9 0 0,7
12.01.2021 02:00:00 2,6 1,6 2,1 2,2 2,6 5,5 2,8 48 26 60 33 SSW 1000,8 9 0 0,4
12.01.2021 01:00:00 3,1 1,7 2,4 2,2 2,6 5,5 2,7 46 25 59 32 SSW 1001,7 15 0 0,0
12.01.2021 00:00:00 3,0 1,5 2,4 2,1 2,6 5,5 2,6 45 24 59 32 SSW 1003,1 20 0 0,0
11.01.2021 23:00:00 2,7 1,5 2,2 2,0 2,6 5,5 2,5 46 25 63 34 SSW 1004,1 18 0 0,0

tt = temperature
td = dewpoint
tt 5cm = temperature 5cm
tt -5cm = temperature -5cm
tt -20cm = temperature -20cm
tt -100cm = temperature -100cm
tw = water temperature
ff = wind speed
fx = gusts
dd = wind direction
ppp = reduced air pressure
vv = visibility
sd = sunshine duration
rr = precipitation

Next stations